Location: Ku?niki
(51.4449°N, 17.8974°E)
Time: 07:55:30
(UTC+00:00)

EO-79 - Pass Details

Date: 07 July 2022
Orbit: 588 x 603 km, 98.0° (Epoch: 09 August)

Event Time Altitude Azimuth Distance (km) Brightness Sun altitude
Rises 00:18:59 0° 18° (NNE) 2,862 ? -13.6°
Reaches altitude 10° 00:21:13 10° 23° (NNE) 1,956 ? -13.5°
Maximum altitude 00:25:22 51° 100° (E) 764 ? -13.2°
Enters shadow 00:28:32 16° 173° (S) 1,573 ? -13.1°
